This demonstration page uses our WeatherBlox Daily Observations layout. Learn more.

Left ArrowRight Arrow

39.92423, -83.80882

Hourly Observations for October 28, 2021

Temp ( °F °C ) Dew Point ( °F °C ) Humidity (%) Winds ( mph kmh ) Pressure ( in mb ) Visibility ( mi km ) Precip ( " mm )
12:44 am 00:44 Cloudy 48 9 48 9 100 100 E 17 28 29.88 1012 10 16 N/A
12:56 am 00:56 Cloudy 48 8.9 48 8.9 100 100 E 14 22 29.86 1011 10 16 N/A
1:56 am 01:56 Cloudy 48 8.9 48 8.9 100 100 ESE 12 19 29.87 1011 10 16 N/A
2:56 am 02:56 Cloudy 48 9 N/A N/A ESE 15 24 29.85 1011 10 16 N/A
3:56 am 03:56 Cloudy 48 8.9 48 8.9 100 100 E 15 24 29.82 1010 10 16 N/A
4:56 am 04:56 Cloudy 49 9.4 49 9.4 100 100 E 16 26 29.78 1009 10 16 N/A
5:56 am 05:56 Cloudy 49 9.4 49 9.4 100 100 ESE 13 20 29.77 1008 10 16 N/A
6:56 am 06:56 Cloudy 49 9.4 49 9.4 100 100 ESE 13 20 29.76 1008 10 16 N/A
7:56 am 07:56 Cloudy 48 9 N/A N/A E 15 24 29.74 1007 10 16 N/A
8:56 am 08:56 Cloudy 48 9 N/A N/A ESE 14 22 29.73 1007 10 16 N/A
9:56 am 09:56 Mostly Cloudy 51 10.6 51 10.6 100 100 ESE 16 26 29.69 1005 10 16 N/A
10:14 am 10:14 Mostly Sunny 52 11 52 11 100 100 ESE 15 24 29.69 1005 10 16 N/A
10:56 am 10:56 Sunny 52 11.1 50 10 93 93 SE 16 26 29.68 1005 10 16 N/A
11:56 am 11:56 Sunny 56 13.3 50 10 81 81 ESE 18 30 29.63 1003 10 16 N/A
12:56 pm 12:56 Cloudy 58 14.4 51 10.6 78 78 SE 13 20 29.62 1003 10 16 N/A
1:56 pm 13:56 Cloudy with Light Rain 58 14.4 51 10.6 78 78 ESE 15 24 29.57 1001 10 16 N/A
2:56 pm 14:56 Cloudy 60 15.6 51 10.6 72 72 SSE 10 17 29.58 1002 10 16 N/A
3:56 pm 15:56 Cloudy with Light Rain 59 15 54 12.2 83 83 S 6 9 29.59 1002 10 16 N/A
4:56 pm 16:56 Cloudy 57 13.9 55 12.8 93 93 WSW 6 9 29.59 1002 10 16 N/A
5:56 pm 17:56 Cloudy with Light Rain 55 13 N/A N/A N N/A 29.60 1002 6 10 N/A
6:15 pm 18:15 Cloudy with Light Rain 54 12 N/A N/A N N/A 29.59 1002 5 8 N/A
6:56 pm 18:56 Cloudy with Light Rain 54 12 N/A N/A ENE 5 7 29.59 1002 6 10 N/A
7:49 pm 19:49 Cloudy with Light Rain 54 12 N/A N/A ENE 5 7 29.59 1002 6 10 N/A
7:56 pm 19:56 Cloudy with Light Rain 54 12 N/A N/A ENE 6 9 29.59 1002 7 11 N/A
8:17 pm 20:17 Cloudy with Light Rain 54 12 N/A N/A E 6 9 29.58 1002 9 14 N/A
8:25 pm 20:25 Cloudy with Light Rain 54 12 N/A N/A E 9 15 29.58 1002 10 16 N/A
8:56 pm 20:56 Cloudy with Light Rain 55 13 N/A N/A ESE 8 13 29.58 1002 10 16 N/A
9:15 pm 21:15 Cloudy with Light Rain 55 13 N/A N/A ESE 10 17 29.57 1001 10 16 N/A
9:56 pm 21:56 Cloudy with Light Rain 55 13 N/A N/A SE 10 17 29.58 1002 10 16 N/A
10:56 pm 22:56 Cloudy with Light Rain 55 13 N/A N/A SE 12 19 29.56 1001 10 16 N/A
11:56 pm 23:56 Cloudy with Light Rain 55 13 N/A N/A SE 9 15 29.55 1001 8 13 N/A

Powered by AerisWeather